Change the Weather History Date:

Wednesday, June 4, 2014

  Actual Average Record
Temperature  
Mean Temperature 89 °F 84 °F  
Max Temperature 107 °F 99 °F 117 °F (1957)
Min Temperature 71 °F 69 °F 51 °F (1943)
Degree Days  
Heating Degree Days 0 0  
Month to date heating degree days 0 0  
Since 1 June heating degree days 0 0  
Since 1 July heating degree days 431 874  
Cooling Degree Days 24 19  
Month to date cooling degree days 96 73  
Year to date cooling degree days 1206 832  
Since 1 June cooling degree days 96 73  
Growing Degree Days 38 (Base 50)    
Moisture  
Dew Point 27 °F    
Average Humidity 20    
Maximum Humidity 38    
Minimum Humidity 2    
Precipitation  
Precipitation 0.00 in 0.00 in 0.37 in (1932)
Month to date precipitation 0.00 0.02  
Year to date precipitation 0.75 2.90  
Since 1 July precipitation 2.01 5.70  
Snow  
Snow 0.00 in - - ()
Month to date snowfall 0.0  
Year to date snowfall 0.0  
Since 1 July snowfall 0.0  
Snow Depth 0.00 in    
Sea Level Pressure  
Sea Level Pressure 29.69 in    
Wind  
Wind Speed 4 mph (NW)    
Max Wind Speed 20 mph    
Max Gust Speed 26 mph    
Visibility 10 miles    
Events      
T = Trace of Precipitation, MM = Missing Value Source: NWS Daily Summary

Daily Weather History Graph

Daily Weather History Graph

Search for Another Location

Airport or City:

Trip Planner

Search our weather history database for the weather conditions in past years. The results will help you decide how hot, cold, wet, or windy it might be!

Date:

Astronomy

Jun. 04, 2014 Rise Set
Actual Time 5:35 AM PDT 7:53 PM PDT
Civil Twilight 5:06 AM PDT 8:22 PM PDT
Nautical Twilight 4:31 AM PDT 8:57 PM PDT
Astronomical Twilight 3:53 AM PDT 9:36 PM PDT
Moon 11:46 AM PDT (6/4) 12:06 AM PDT (6/4)
Length of Visible Light 15h 15m
Length of Day
14h 18m
Waxing Crescent, 40% of the Moon is Illuminated
Jun 4
Waxing Crescent
Jun 5
First Quarter
Jun 12
Full
Jun 19
Last Quarter
Jun 27
New

Hourly Weather History & Observations

Time (PDT) Temp. Dew Point Humidity Pressure Visibility Wind Dir Wind Speed Gust Speed Precip Events Conditions
12:53 AM 82.9 °F 39.9 °F 22% 29.70 in 10.0 mi Calm Calm - N/A   Clear
1:53 AM 80.1 °F 37.9 °F 22% 29.69 in 10.0 mi SW 4.6 mph - N/A   Clear
2:53 AM 80.1 °F 36.0 °F 20% 29.68 in 10.0 mi Calm Calm - N/A   Clear
3:53 AM 73.9 °F 44.1 °F 34% 29.68 in 10.0 mi South 3.5 mph - N/A   Clear
4:53 AM 75.9 °F 37.0 °F 24% 29.70 in 10.0 mi Calm Calm - N/A   Clear
5:53 AM 72.0 °F 44.1 °F 37% 29.71 in 10.0 mi Calm Calm - N/A   Clear
6:53 AM 77.0 °F 42.1 °F 29% 29.73 in 10.0 mi Calm Calm - N/A   Clear
8:53 AM 87.1 °F 30.9 °F 13% 29.74 in 10.0 mi SE 3.5 mph - N/A   Clear
9:53 AM 91.0 °F 27.0 °F 10% 29.74 in 10.0 mi Variable 3.5 mph - N/A   Clear
10:53 AM 93.9 °F 21.9 °F 7% 29.74 in 10.0 mi Calm Calm - N/A   Clear
11:53 AM 97.0 °F 10.0 °F 4% 29.73 in 10.0 mi Calm Calm - N/A   Scattered Clouds
12:53 PM 102.0 °F 7.0 °F 4% 29.71 in 10.0 mi North 12.7 mph 18.4 mph N/A   Clear
1:53 PM 102.0 °F 6.1 °F 4% 29.69 in 10.0 mi Variable 3.5 mph - N/A   Scattered Clouds
2:53 PM 105.1 °F 5.0 °F 4% 29.68 in 10.0 mi WNW 10.4 mph 16.1 mph N/A   Clear
3:53 PM 104.0 °F 5.0 °F 4% 29.66 in 10.0 mi NW 10.4 mph 20.7 mph N/A   Clear
4:53 PM 105.1 °F 8.1 °F 4% 29.64 in 10.0 mi NW 15.0 mph - N/A   Clear
5:53 PM 102.9 °F 18.0 °F 5% 29.63 in 10.0 mi NW 17.3 mph 27.6 mph N/A   Clear
6:53 PM 100.9 °F 24.1 °F 7% 29.63 in 10.0 mi NNW 19.6 mph 23.0 mph N/A   Clear
8:53 PM 93.9 °F 34.0 °F 12% 29.65 in 10.0 mi NW 17.3 mph 26.5 mph N/A   Clear
9:53 PM 91.9 °F 37.0 °F 15% 29.67 in 10.0 mi NW 18.4 mph 27.6 mph N/A   Clear
10:53 PM 90.0 °F 37.9 °F 16% 29.67 in 10.0 mi NW 13.8 mph 21.9 mph N/A   Clear
11:53 PM 89.1 °F 34.0 °F 14% 29.67 in 10.0 mi NW 10.4 mph - N/A   Clear